Abingdon, VA

5:53 PM EDT on April 25, 2017 (GMT -0400)
Virginia Highlands

Weather History for KVJI - May, 2013

Change the Weather History Date:

Sunday, May 19, 2013

  Actual Average (KTRI) Record (KTRI)
Temperature  
Mean Temperature 72 °F -  
Max Temperature 82 °F 77 °F 91 °F (1962)
Min Temperature 63 °F 52 °F 35 °F (2002)
Cooling Degree Days 8    
Growing Degree Days 22 (Base 50)    
Moisture  
Dew Point 66 °F    
Average Humidity 92    
Maximum Humidity 100    
Minimum Humidity 61    
Precipitation  
Precipitation 0.38 in - - ()
Sea Level Pressure  
Sea Level Pressure 30.09 in    
Wind  
Wind Speed 2 mph (North)    
Max Wind Speed 13 mph    
Max Gust Speed -    
Visibility 9 miles    
Events Rain , Thunderstorm    
Averages and records for this station are not official NWS values.
T = Trace of Precipitation, MM = Missing Value Source: NWS Daily Summary

Daily Weather History Graph

Daily Weather History Graph

Search for Another Location

Airport or City:

Trip Planner

Search our weather history database for the weather conditions in past years. The results will help you decide how hot, cold, wet, or windy it might be!

Date:

Astronomy

May. 19, 2013 Rise Set
Actual Time 6:17 AM EDT 8:32 PM EDT
Civil Twilight 5:48 AM EDT 9:01 PM EDT
Nautical Twilight 5:12 AM EDT 9:37 PM EDT
Astronomical Twilight 4:33 AM EDT 10:16 PM EDT
Moon 2:43 PM EDT (5/19) 2:30 AM EDT (5/19)
Length of Visible Light 15h 12m
Length of Day
14h 14m
Waxing Gibbous, 65% of the Moon is Illuminated
May 19
Waxing Gibbous
May 25
Full
May 31
Last Quarter
Jun 8
New
Jun 16
First Quarter

Hourly Weather History & Observations

Time (EDT) Temp. Heat Index Dew Point Humidity Pressure Visibility Wind Dir Wind Speed Gust Speed Precip Events Conditions
12:15 AM 64.8 °F - 64.8 °F 100% 30.10 in 7.0 mi Calm Calm - N/A   Drizzle
12:35 AM 64.8 °F - 64.8 °F 100% 30.10 in 5.0 mi ESE 3.5 mph - 0.01 in Rain Light Rain
1:15 AM 64.8 °F - 64.8 °F 100% 30.09 in 10.0 mi East 8.1 mph - 0.01 in   Overcast
1:35 AM 64.9 °F - 64.9 °F 100% 30.09 in 10.0 mi ENE 3.5 mph - 0.01 in   Overcast
1:55 AM 64.8 °F - 64.8 °F 100% 30.09 in 10.0 mi East 3.5 mph - 0.01 in   Overcast
2:15 AM 64.9 °F - 64.9 °F 100% 30.09 in 10.0 mi ENE 3.5 mph - N/A   Overcast
2:35 AM 64.9 °F - 64.9 °F 100% 30.09 in 10.0 mi Calm Calm - N/A   Overcast
2:55 AM 64.8 °F - 64.8 °F 100% 30.09 in 10.0 mi Calm Calm - N/A   Overcast
3:15 AM 64.8 °F - 64.8 °F 100% 30.09 in 10.0 mi Calm Calm - N/A   Overcast
3:35 AM 64.8 °F - 64.8 °F 100% 30.09 in 10.0 mi Calm Calm - N/A   Overcast
3:55 AM 64.4 °F - 64.4 °F 100% 30.08 in 10.0 mi Calm Calm - N/A   Overcast
4:15 AM 64.4 °F - 64.4 °F 100% 30.08 in 10.0 mi Calm Calm - N/A   Overcast
4:35 AM 63.9 °F - 63.9 °F 100% 30.09 in 10.0 mi Calm Calm - N/A   Overcast
4:55 AM 63.9 °F - 63.9 °F 100% 30.09 in 10.0 mi Calm Calm - N/A   Overcast
5:15 AM 63.9 °F - 63.9 °F 100% 30.09 in 10.0 mi Calm Calm - N/A   Overcast
5:35 AM 63.7 °F - 63.7 °F 100% 30.09 in 7.0 mi Calm Calm - N/A   Overcast
5:55 AM 63.9 °F - 63.9 °F 100% 30.10 in 7.0 mi Calm Calm - N/A Rain Light Rain
6:15 AM 64.0 °F - 64.0 °F 100% 30.10 in 10.0 mi Calm Calm - N/A Rain Light Rain
6:35 AM 64.0 °F - 64.0 °F 100% 30.10 in 7.0 mi Calm Calm - N/A   Light Drizzle
6:55 AM 63.9 °F - 63.9 °F 100% 30.11 in 10.0 mi Calm Calm - N/A   Overcast
7:15 AM 63.9 °F - 63.9 °F 100% 30.11 in 7.0 mi Calm Calm - N/A Rain Light Rain
7:35 AM 64.4 °F - 64.4 °F 100% 30.11 in 1.5 mi Calm Calm - 0.05 in Rain Rain
8:15 AM 65.1 °F - 65.1 °F 100% 30.12 in 10.0 mi Calm Calm - N/A   Overcast
8:35 AM 65.7 °F - 65.7 °F 100% 30.12 in 10.0 mi Calm Calm - N/A   Overcast
8:55 AM 67.8 °F - 67.5 °F 99% 30.12 in 10.0 mi East 4.6 mph - N/A   Scattered Clouds
9:15 AM 69.6 °F - 67.8 °F 94% 30.13 in 10.0 mi Calm Calm - N/A   Clear
9:35 AM 70.3 °F - 67.5 °F 91% 30.13 in 10.0 mi Calm Calm - N/A   Scattered Clouds
9:55 AM 70.5 °F - 67.1 °F 89% 30.13 in 10.0 mi Calm Calm - N/A   Mostly Cloudy
10:15 AM 72.3 °F - 67.8 °F 86% 30.12 in 10.0 mi Calm Calm - N/A   Mostly Cloudy
10:55 AM 73.4 °F - 67.5 °F 82% 30.11 in 10.0 mi WSW 5.8 mph - N/A   Overcast
11:15 AM 74.3 °F - 66.9 °F 78% 30.11 in 10.0 mi Calm Calm - N/A   Mostly Cloudy
11:35 AM 74.3 °F - 67.5 °F 79% 30.11 in 10.0 mi WSW 5.8 mph - N/A   Mostly Cloudy
11:55 AM 74.7 °F - 67.3 °F 78% 30.11 in 10.0 mi West 8.1 mph - N/A   Overcast
12:15 PM 75.4 °F - 67.1 °F 75% 30.10 in 10.0 mi WNW 5.8 mph - N/A   Scattered Clouds
12:35 PM 76.5 °F - 66.6 °F 71% 30.09 in 10.0 mi West 6.9 mph - N/A   Scattered Clouds
12:55 PM 77.5 °F - 67.6 °F 71% 30.08 in 10.0 mi West 5.8 mph - N/A   Mostly Cloudy
1:15 PM 78.3 °F - 67.6 °F 70% 30.08 in 10.0 mi West 4.6 mph - N/A   Scattered Clouds
1:35 PM 79.5 °F - 68.7 °F 69% 30.07 in 10.0 mi WSW 8.1 mph - N/A   Scattered Clouds
1:55 PM 79.2 °F - 67.5 °F 67% 30.07 in 10.0 mi West 8.1 mph - N/A   Mostly Cloudy
2:15 PM 79.3 °F - 67.6 °F 67% 30.06 in 10.0 mi NNW 5.8 mph - N/A   Mostly Cloudy
2:35 PM 79.5 °F - 66.0 °F 63% 30.05 in 10.0 mi West 5.8 mph - N/A   Mostly Cloudy
3:15 PM 78.8 °F - 66.9 °F 67% 30.05 in 10.0 mi WNW 3.5 mph - N/A Thunderstorm Mostly Cloudy
3:35 PM 79.9 °F - 66.9 °F 64% 30.05 in 10.0 mi NW 4.6 mph - N/A   Mostly Cloudy
4:15 PM 82.0 °F 84.7 °F 67.5 °F 61% 30.03 in 10.0 mi West 8.1 mph - N/A Thunderstorm Mostly Cloudy
4:35 PM 79.3 °F - 65.8 °F 63% 30.03 in 10.0 mi WNW 3.5 mph - N/A   Mostly Cloudy
4:55 PM 70.2 °F - 66.7 °F 89% 30.03 in 1.8 mi WSW 11.5 mph - 0.24 in Rain , Thunderstorm Heavy Thunderstorms and Rain
5:15 PM 71.4 °F - 69.1 °F 92% 30.05 in 10.0 mi Calm Calm - 0.03 in Rain , Thunderstorm Light Thunderstorms and Rain
5:35 PM 69.4 °F - 66.7 °F 91% 30.07 in 10.0 mi ESE 9.2 mph - 0.03 in Thunderstorm Thunderstorm
5:55 PM 68.5 °F - 67.6 °F 97% 30.08 in 10.0 mi SE 12.7 mph - 0.03 in Rain Light Rain
6:15 PM 67.1 °F - 66.4 °F 98% 30.08 in 5.0 mi ESE 9.2 mph - 0.04 in Rain , Thunderstorm Light Thunderstorms and Rain
6:35 PM 66.6 °F - 66.6 °F 100% 30.08 in 7.0 mi ENE 4.6 mph - 0.05 in Rain , Thunderstorm Thunderstorms and Rain
6:55 PM 66.6 °F - 66.6 °F 100% 30.08 in 10.0 mi ENE 3.5 mph - 0.05 in   Overcast
7:15 PM 66.6 °F - 66.6 °F 100% 30.07 in 10.0 mi East 5.8 mph - N/A   Scattered Clouds
7:35 PM 66.2 °F - 66.2 °F 100% 30.07 in 10.0 mi ENE 4.6 mph - N/A Thunderstorm Clear
7:55 PM 66.2 °F - 66.2 °F 100% 30.08 in 10.0 mi Calm Calm - N/A   Clear
8:15 PM 65.7 °F - 65.7 °F 100% 30.09 in 10.0 mi Calm Calm - N/A   Scattered Clouds
8:35 PM 65.3 °F - 65.3 °F 100% 30.09 in 10.0 mi Calm Calm - N/A   Scattered Clouds
8:55 PM 64.9 °F - 64.9 °F 100% 30.10 in 10.0 mi Calm Calm - N/A   Mostly Cloudy
9:15 PM 64.4 °F - 64.4 °F 100% 30.10 in 10.0 mi Calm Calm - N/A   Mostly Cloudy
9:35 PM 64.0 °F - 64.0 °F 100% 30.10 in 7.0 mi East 4.6 mph - N/A   Mostly Cloudy
9:55 PM 64.4 °F - 64.4 °F 100% 30.10 in 7.0 mi Calm Calm - N/A   Scattered Clouds
10:15 PM 64.6 °F - 64.6 °F 100% 30.11 in 7.0 mi Calm Calm - N/A   Mostly Cloudy
10:35 PM 64.6 °F - 64.6 °F 100% 30.11 in 7.0 mi East 3.5 mph - N/A   Overcast
10:55 PM 64.8 °F - 64.8 °F 100% 30.11 in 7.0 mi Calm Calm - N/A   Overcast
11:15 PM 64.8 °F - 64.8 °F 100% 30.10 in 10.0 mi Calm Calm - N/A   Overcast
11:35 PM 64.8 °F - 64.8 °F 100% 30.10 in 10.0 mi Calm Calm - N/A   Overcast